TimeCDT,TemperatureF,Dew PointF,Humidity,Sea Level PressureIn,VisibilityMPH,Wind Direction,Wind SpeedMPH,Gust SpeedMPH,PrecipitationIn,Events,Conditions,WindDirDegrees,DateUTC
12:56 AM,88.0,60.1,39,29.99,10.0,East,8.1,-,N/A,,Clear,90,2013-07-14 05:56:00
1:56 AM,86.0,57.0,37,29.98,10.0,East,8.1,-,N/A,,Clear,90,2013-07-14 06:56:00
2:56 AM,84.0,55.9,38,29.96,10.0,ESE,6.9,-,N/A,,Clear,120,2013-07-14 07:56:00
3:56 AM,82.0,57.0,42,29.94,10.0,ESE,5.8,-,N/A,,Clear,120,2013-07-14 08:56:00
4:56 AM,80.1,57.9,47,29.94,10.0,ESE,3.5,-,N/A,,Clear,110,2013-07-14 09:56:00
5:56 AM,79.0,60.1,52,29.93,10.0,SSE,3.5,-,N/A,,Clear,150,2013-07-14 10:56:00
6:56 AM,79.0,61.0,54,29.94,10.0,SSE,4.6,-,N/A,,Clear,160,2013-07-14 11:56:00
7:56 AM,81.0,63.0,54,29.95,10.0,SE,4.6,-,N/A,,Clear,140,2013-07-14 12:56:00
8:56 AM,84.0,64.0,51,29.96,10.0,SSE,4.6,-,N/A,,Clear,150,2013-07-14 13:56:00
9:56 AM,84.9,62.1,46,30.00,10.0,North,11.5,20.7,N/A,,Partly Cloudy,10,2013-07-14 14:56:00
10:56 AM,82.0,61.0,49,30.03,10.0,NNE,16.1,27.6,N/A,,Clear,30,2013-07-14 15:56:00
11:56 AM,77.0,64.9,66,30.04,10.0,NE,15.0,27.6,0.00,Rain,Light Rain,40,2013-07-14 16:56:00
12:56 PM,75.0,68.0,79,30.05,10.0,Variable,4.6,-,0.04,,Mostly Cloudy,0,2013-07-14 17:56:00
1:56 PM,73.9,66.0,76,30.04,10.0,ENE,10.4,18.4,0.01,Rain,Light Rain,60,2013-07-14 18:56:00
2:56 PM,72.0,64.9,78,29.95,7.0,East,13.8,21.9,0.04,Rain,Light Rain,80,2013-07-14 19:56:00
3:56 PM,72.0,64.0,76,29.94,10.0,East,6.9,-,0.00,,Overcast,90,2013-07-14 20:56:00
4:56 PM,72.0,66.9,84,29.96,10.0,North,5.8,-,0.00,,Overcast,10,2013-07-14 21:56:00
5:30 PM,71.6,66.2,83,29.95,8.0,ENE,8.1,-,0.02,Rain-Thunderstorm,Light Thunderstorms and Rain,70,2013-07-14 22:30:00
5:52 PM,71.6,66.2,83,29.94,10.0,East,8.1,-,0.03,Rain,Light Rain,80,2013-07-14 22:52:00
5:56 PM,71.1,66.9,87,29.93,10.0,East,4.6,-,0.03,,Overcast,80,2013-07-14 22:56:00
6:56 PM,72.0,66.9,84,29.90,10.0,ESE,6.9,-,N/A,,Mostly Cloudy,110,2013-07-14 23:56:00
7:56 PM,72.0,68.0,87,29.90,10.0,NNE,5.8,-,0.01,,Mostly Cloudy,20,2013-07-15 00:56:00
8:56 PM,70.0,66.9,90,29.93,9.0,ESE,5.8,-,0.07,Rain,Light Rain,110,2013-07-15 01:56:00
9:17 PM,69.8,66.2,88,29.94,9.0,NE,5.8,-,0.02,Rain,Light Rain,40,2013-07-15 02:17:00
9:30 PM,69.8,66.2,88,29.93,10.0,NE,8.1,-,0.02,,Overcast,40,2013-07-15 02:30:00
9:56 PM,69.1,66.0,90,29.96,7.0,NNE,5.8,-,0.05,Rain,Heavy Rain,20,2013-07-15 02:56:00
10:03 PM,69.8,66.2,88,29.96,6.0,North,8.1,-,0.03,Rain,Heavy Rain,10,2013-07-15 03:03:00
10:56 PM,69.1,66.0,90,30.02,10.0,NE,9.2,-,0.08,Rain,Light Rain,50,2013-07-15 03:56:00
11:01 PM,69.8,66.2,88,29.96,10.0,NE,8.1,-,0.00,Rain,Light Rain,40,2013-07-15 04:01:00
11:23 PM,69.8,66.2,88,30.00,8.0,NNW,8.1,-,0.03,Rain,Rain,330,2013-07-15 04:23:00
11:56 PM,69.1,66.9,93,30.05,6.0,NNE,6.9,-,0.14,Rain,Heavy Rain,20,2013-07-15 04:56:00